This demonstration page uses our WeatherBlox Daily Observations layout. Learn more.

Left ArrowRight Arrow

30.21309, -93.2044

Hourly Observations for July 17, 2021

Temp ( °F °C ) Dew Point ( °F °C ) Humidity (%) Winds ( mph kmh ) Pressure ( in mb ) Visibility ( mi km ) Precip ( " mm )
12:15 am 00:15 Clear 76 24.7 75 23.8 95 95 SE 5 7 30.04 1017 10 16 0.00 0.00
12:35 am 00:35 Clear 77 24.8 75 23.9 95 95 SE 5 7 30.04 1017 10 16 0.00 0.00
12:55 am 00:55 Clear 77 24.9 75 23.9 94 94 SE 3 6 30.04 1017 10 16 0.00 0.00
1:15 am 01:15 Clear 77 24.8 75 23.7 94 94 E 5 7 30.04 1017 10 16 0.00 0.00
1:35 am 01:35 Clear 77 24.8 75 23.7 94 94 E 5 7 30.04 1017 10 16 0.00 0.00
1:55 am 01:55 Clear 76 24.7 75 23.7 94 94 Calm 30.04 1017 10 16 0.00 0.00
2:15 am 02:15 Clear 76 24.7 75 23.8 95 95 Calm 30.04 1017 10 16 0.00 0.00
2:35 am 02:35 Clear 76 24.6 75 23.7 95 95 Calm 30.03 1017 10 16 0.00 0.00
2:55 am 02:55 Clear 76 24.5 75 23.7 95 95 Calm 30.04 1017 10 16 0.00 0.00
3:15 am 03:15 Clear 76 24.5 75 23.7 95 95 Calm 30.04 1017 10 16 0.00 0.00
3:35 am 03:35 Clear 76 24.3 74 23.5 95 95 ESE 5 7 30.04 1017 10 16 0.00 0.00
3:55 am 03:55 Clear 76 24.3 74 23.6 96 96 Calm 30.04 1017 10 16 0.00 0.00
4:15 am 04:15 Clear 76 24.5 75 23.7 95 95 Calm 30.05 1018 10 16 0.00 0.00
4:35 am 04:35 Clear 76 24.4 74 23.6 95 95 E 3 6 30.05 1018 10 16 0.00 0.00
4:55 am 04:55 Clear 76 24.4 74 23.6 95 95 E 3 6 30.06 1018 10 16 0.00 0.00
5:15 am 05:15 Clear 76 24.4 74 23.6 95 95 Calm 30.06 1018 10 16 0.00 0.00
5:35 am 05:35 Clear 76 24.3 74 23.5 95 95 E 3 6 30.06 1018 7 11 0.00 0.00
6:00 am 06:00 Mostly Clear 75 24 73 23 94 94 Calm 30.06 1018 10 16 0.00 0.00
6:48 am 06:48 Mostly Sunny 75 24 75 24 100 100 ENE 5 7 30.08 1019 10 16 0.00 0.00
7:50 am 07:50 Mostly Sunny 79 26 75 24 89 89 E 6 9 30.09 1019 10 16 0.00 0.00
8:53 am 08:53 Mostly Sunny 82 28 77 25 84 84 Calm 30.11 1020 10 16 0.00 0.00
9:55 am 09:55 Mostly Cloudy 84 29 79 26 84 84 Calm 30.10 1019 10 16 0.00 0.00
10:55 am 10:55 Mostly Cloudy 88 31 75 24 66 66 Calm 30.10 1019 10 16 0.00 0.00
11:54 am 11:54 Mostly Cloudy 88 31 75 24 66 66 WSW 9 15 30.11 1020 10 16 0.00 0.00
12:46 pm 12:46 Mostly Cloudy 84 29 75 24 74 74 E 10 17 30.01 1016 10 16 0.00 0.00
1:45 pm 13:45 Mostly Cloudy with Light Showers 84 29 75 24 74 74 W 12 19 30.09 1019 10 16 0.00 0.00
2:50 pm 14:50 Partly Cloudy with Showers Nearby 84 29 77 25 79 79 SE 10 17 30.08 1019 10 16 0.00 0.00
3:50 pm 15:50 Partly Cloudy 88 31 73 23 62 62 S 7 11 30.06 1018 10 16 0.00 0.00
4:50 pm 16:50 Partly Cloudy 90 32 75 24 63 63 S 10 17 30.05 1018 10 16 0.00 0.00
5:50 pm 17:50 Partly Cloudy 90 32 75 24 63 63 S 8 13 30.04 1017 10 16 0.00 0.00
6:50 pm 18:50 Partly Cloudy 88 31 75 24 66 66 S 8 13 30.04 1017 10 16 0.00 0.00
7:55 pm 19:55 Mostly Sunny 84 29 75 24 74 74 S 8 13 30.05 1018 10 16 0.00 0.00
8:50 pm 20:50 Mostly Clear 81 27 77 25 89 89 SSE 6 9 30.06 1018 10 16 0.00 0.00
9:50 pm 21:50 Mostly Clear 81 27 75 24 84 84 S 3 6 30.08 1019 10 16 0.00 0.00
10:35 pm 22:35 Clear 80 26.5 76 24.6 89 89 S 5 7 30.09 1019 10 16 0.00 0.00
10:55 pm 22:55 Clear 80 26.5 76 24.7 90 90 S 5 7 30.09 1019 10 16 0.00 0.00
11:15 pm 23:15 Clear 80 26.4 76 24.6 90 90 S 5 7 30.09 1019 10 16 0.00 0.00
11:35 pm 23:35 Clear 79 26.2 76 24.5 90 90 S 5 7 30.09 1019 10 16 0.00 0.00
11:55 pm 23:55 Clear 79 26.1 76 24.6 91 91 SE 3 6 30.09 1019 10 16 0.00 0.00

Powered by AerisWeather